Regional Weather Roundup
Issued by NWS Wakefield, VA

Home | Current Version | Previous Version | Graphics & Text | Print | Product List | Glossary On
Versions: 1 2 3 4 5 6 7 8 9 10 11 12 13 14 15 16 17 18 19 20 21 22 23 24 25 26 27
000
ASUS41 KAKQ 202315
RWRAKQ

REGIONAL WEATHER ROUNDUP
NATIONAL WEATHER SERVICE WAKEFIELD VA
700 PM EDT SUN AUG 20 2017

Note: "fair" indicates few or no clouds below 12,000 feet with no
significant weather and/or obstructions to visibility. * = Denotes
station may not report precipitation (e.g., rain,snow,etc.),
thunder or fog.

VAZ042-051-052>054-056-210000-
NORTHERN VIRGINIA

CITY           SKY/WX    TMP DP  RH WIND       PRES   REMARKS
WASH NATIONAL  CLEAR     85  64  49 N6        30.11R
DULLES         SUNNY     84  64  50 CALM      30.12R
FORT BELVOIR   CLEAR     83  67  58 S5        30.11R
QUANTICO       CLEAR     85  68  56 SE6       30.11S
FREDERICKSBRG* SUNNY     85  69  59 E3        30.10S
STAFFORD*      SUNNY     82  68  63 E6        30.15S
WARRENTON      SUNNY     84  65  52 CALM      30.12R
CULPEPER*      MOSUNNY   84  69  61 CALM      30.12R
MANASSAS*      SUNNY     83  69  62 SE5       30.12R
LEESBURG*      SUNNY     82  66  57 CALM      30.13R
WINCHESTER     SUNNY     79  63  57 E6        30.13R
FRONT ROYAL*   PTCLDY    82  70  65 E5        30.11S
LURAY*         MOCLDY    82  70  65 CALM      30.13R
$$

VAZ048-049-060>072-079>083-210000-
CENTRAL AND SOUTH CENTRAL VIRGINIA

CITY           SKY/WX    TMP DP  RH WIND       PRES   REMARKS
RICHMOND       PTCLDY    85  70  60 E7        30.11R
CHESTERFIELD*  FAIR      86  70  58 E5        30.12R
PETERSBURG*    CLEAR     85  69  59 CALM      30.11R
HANOVER        CLEAR     84  72  67 CALM      30.12R
TAPPAHANNOCK*  CLEAR     84  60  43 NE3       30.13R
QUINTON*       FAIR      84  72  67 E3        30.11R
CHARLOTTSVILLE MOSUNNY   84  70  62 NE6       30.12R
GORDONSVILLE*  CLEAR     83  71  65 CALM      30.11R
ORANGE*        SUNNY     82  68  61 CALM      30.12R
LOUISA*        SUNNY     82  70  65 CALM      30.12R
BUMPASS*       FAIR      82  72  72 CALM      30.12R
FARMVILLE*     SUNNY     89  60  37 E5        30.10R
CREWE*         FAIR      84  68  58 CALM      30.11S
FORT PICKETT*  FAIR     N/A N/A N/A S6        30.12R
CHASE CITY*    FAIR      87  71  59 CALM      30.11S
CLARKSVILLE*   FAIR      86  72  62 E3        30.10S
SOUTH HILL*    PTSUNNY   86  75  69 CALM      30.17R HX  95
LAWRENCEVILLE* FAIR      84  76  75 CALM      30.11R
EMPORIA*       CLEAR     86  72  62 CALM      30.11R
$$

VAZ088>098-210000-
SOUTHEAST VIRGINIA

CITY           SKY/WX    TMP DP  RH WIND       PRES   REMARKS
NORFOLK        CLOUDY    82  73  74 E7        30.12R
VIRGINIA BEACH PTCLDY    80  71  74 E8        30.12R
NORFOLK NAVAL  MOCLDY    84  69  60 E8        30.13R
WEST POINT*    CLEAR     82  67  58 E7        30.13R
SALUDA*        FAIR      81  67  63 CALM      30.13R
NEWPORT NEWS   CLEAR     81  70  69 E8        30.12R
LANGLEY AFB    CLEAR     81  71  72 E8        30.12R
FORT EUSTIS    CLEAR     87  71  58 E7        30.10R
WILLIAMSBURG*  CLEAR     84  72  65 CALM      30.13R
HR EXEC AP*    FAIR      82  72  69 SE6       30.09R
FRANKLIN*      CLEAR     84  74  72 E6        30.11R
US460-WAKEFLD  CLEAR     83  73  72 VRB6      30.11R
$$

VAZ020-022-025-037-045-210000-
WEST CENTRAL AND SOUTHWEST VIRGINIA

CITY           SKY/WX    TMP DP  RH WIND       PRES   REMARKS
STAUNTON*      CLOUDY    81  67  62 CALM      30.16R
WAYNESBORO*    CLOUDY    82  67  61 SE5       30.15S
HOT SPRINGS VA CLOUDY    73  57  56 CALM      30.28F
LYNCHBURG      MOSUNNY   87  62  43 S5        30.12R
DANVILLE       SUNNY     87  71  58 E3        30.11R
SOUTH BOSTON*  FAIR      87  69  55 CALM      30.10S
MARTINSVILLE   SUNNY     83  73  69 CALM      30.15S
ROANOKE        MOSUNNY   87  63  44 S9        30.14S
BLACKSBURG     SUNNY     82  66  58 E8        30.21S
DUBLIN*        MOSUNNY   85  65  50 S5        30.18S
MARION*        MOSUNNY   79  46  31 CALM      30.22S
HILLSVILLE*    PTSUNNY   78  62  58 CALM      30.21S
RICHLANDS*     FAIR      81  59  46 W3        30.21R
WISE*          MOSUNNY   79  63  57 CALM      30.21S
ABINGDON*      SUNNY     85  66  53 CALM      30.16S
$$

MDZ021>025-VAZ099-100-210000-
SOUTHERN MARYLAND AND THE DELMARVA PENINSULA

CITY           SKY/WX    TMP DP  RH WIND       PRES   REMARKS
PATUXENT RIVER CLEAR     80  70  71 CALM      30.12R
BAY BRIDGE APT CLEAR     82  64  54 SE6       30.11S
LEONARDTOWN    CLEAR     79  68  69 SE5       30.14R
DOVER          CLEAR     81  59  47 W6        30.12R
GEORGETOWN     CLEAR     83  62  49 CALM      30.13R
EASTON         NOT AVBL
CAMBRIDGE      CLEAR     81  66  61 CALM      30.12S
SALISBURY      CLEAR     82  64  54 NW5       30.12R
OCEAN CITY     CLEAR     77  69  76 S3        30.13R
WALLOPS ISLAND CLEAR     79  70  74 S8        30.13R
ACCOMACK*      CLEAR     80  72  75 SE3       30.13R
$$

NCZ012>017-030>032-210000-
NORTH CENTRAL AND EASTERN NORTH CAROLINA

CITY           SKY/WX    TMP DP  RH WIND       PRES   REMARKS
ROANOKE RAPIDS FAIR      86  73  66 CALM      30.10R
RALEIGH        MOSUNNY   90  68  48 E9        30.10R
ELIZABETH CITY CLEAR     83  74  74 E8        30.12R
AHOSKIE*         N/A     82  77  83 CALM      30.10R
EDENTON*       CLEAR     85  76  74 CALM      30.11R
CURRITUCK*     CLEAR     83  72  70 E5        30.12R
KILL DEVIL HLS CLEAR     80  74  80 CALM      30.11R
MANTEO         PTCLDY    81  75  81 E7        30.12R
CAPE HATTERAS  PTCLDY    82  78  88 E7        30.11R
TARBORO*       NOT AVBL
GOLDSBORO      SUNNY     90  71  53 E7        30.08R HX  97
WASHINGTON     CLOUDY    87  74  64 CALM      30.10R HX  95
GREENVILLE     CLOUDY    90  72  55 E7        30.11S HX  96
NEW BERN       PTCLDY    84  73  69 CALM      30.10S
WILMINGTON     PTCLDY    84  75  74 E6        30.10R
$$

VAZ048-210000-
ELSEWHERE

CITY           SKY/WX    TMP DP  RH WIND       PRES   REMARKS
HARRISBURG PA  PTCLDY    78  70  76 S3        30.10S
BALTIMORE      CLEAR     83  61  47 VRB5      30.11R
ANNAPOLIS      CLEAR     82  67  60 SE6       30.10S
ANDREWS AFB    CLEAR     82  64  55 SE3       30.11R
PHILADELPHIA   PTCLDY    83  58  42 N9        30.11R
HENDERSON NC   SUNNY     84  70  61 E3        30.11R
GREENSBORO     MOSUNNY   89  66  46 N6        30.11R
ROCKY MOUNT    SUNNY     84  75  74 E3        30.09S
$$

VAZ100-210000-
MARINE

STATION/POSITION TIME  TEMP    WIND        PRES    WAVE   SWELL
                       AIR SEA DIR/SP/G            HT/PER HT/PER
                 (UTC) (F)     (DEG/KT/KT) (MB)    (FT/S) (FT/S)
BRANDYWINE LGT   2242   81     290/  3/  4 1020.2R
CAPE MAY NJ      2242   80 80  290/  5/  6 1019.3R
LEWES DE         2242   80 80   10/  1/  2 1019.6R
15NM E FENWICK I 2250   80 79  210/  2/  4 1020.3R   2/ 6   2/ 6
OCEAN-CITY-INLET 2242   79 79  180/  4/  5 1020.5R
WACHAPREAGUE VA  2242   80 85  180/  5/  7 1020.3R
THOMAS POINT MD  2300   81 82  140/  4/  4   N/A
GOOSES REEF MD   2300   83 81  150/  4/  6 1020.5    0
COVE POINT MD    2242   81     120/  2/  3 1020.4R
SOLOMONS ISLAND  2242   81 81   80/  4/  5   N/A
BISHOPS HEAD MD  2242   83 85   40/  5/  7 1020.0R
PINEY POINT MD   2236          150/  7/  8   N/A
POTOMAC MD       2300   81 85   90/  4/  6 1019.4    0
CAMBRIDGE MD     2242   84 84              1020.8R
LEWISETTA VA     2242   81 84  110/  7/  8 1019.8R
RAPPAHANNOCK LGT 2236           20/  7/  8 1020.7R
STINGRAY PT      2300   83 83   80/  6/  8 1020.4    1
YORK RVR RNG VA  2242   81      90/  8/ 10 1020.4R
YORKTOWN VA      2242   82 83  120/  8/ 11 1019.7R
JAMESTOWN VA     2300      86  100/  6/ 10   N/A     0
DOMINION TERM VA 2242   82     360/  2/  6 1020.1R
KIPTOPEKE VA     2236      83  120/  6/  9   N/A
CHES BAY BRIDGE  2236   80 80  130/  7/ 11 1019.9R
CAPE HENRY VA    2236   80     120/  9/ 11   N/A
WILLOUBY STN VA  2236   80      80/  8/  9 1020.0R
S CRANEY ISL VA  2236   83      60/  9/ 11 1019.4R
CAPE HENRY BUOY  2300      82                N/A     2/ 7
1ST LANDING BUOY 2300   80 81              1019.9    1/ 3
64NM E OF VA BCH 2250   79 81   80/  8/  8 1020.2R   2/ 8   2/ 8
DUCK PIER NC     2236   82 79  100/  9/ 11 1019.3R
44100 DUCK FRF   2205      81                N/A     2/ 8
44056 DUCK FRF   2230      80                N/A     2/ 9
OREGON INLET NC  2236   80 85   70/  6/  9 1019.6R
HATTERAS NC      2236   80 81  100/  4/  6 1019.6R
DIAMOND SHLS NC  2250   82 85   60/  6/  6 1019.3S   2/ 9   2/ 9
CAPE LOOKOUT NC  2300   82     100/  6/  7 1019.0R
$$




USA.gov is the U.S. government's official web portal to all federal, state and local government web resources and services.